Location: Cleveland
(41.4990°N, 81.6960°W)
Time: 03:04:46
(UTC-05:00)

Tiangong - Visible Passes

Search period start: 09 December 2023 00:00
Search period end: 19 December 2023 00:00
Orbit: 372 x 383 km, 41.5° (Epoch: 08 December)

Date Brightness Start Highest point End Pass type
(mag) Time Alt. Az. Time Alt. Az. Time Alt. Az.
14 Dec 1.2 06:34:04 10° SSE 06:34:50 11° SE 06:35:37 10° SE visible
15 Dec 0.0 07:06:24 10° SW 07:09:07 28° SSE 07:11:50 10° E visible
16 Dec 0.6 06:05:10 10° SSW 06:07:16 17° SSE 06:09:23 10° ESE visible
17 Dec -1.0 06:38:40 10° SW 06:41:37 40° SSE 06:44:34 10° E visible
18 Dec -0.2 05:39:46 25° SSE 05:39:46 25° SSE 05:42:19 10° E visible
18 Dec -2.1 07:13:01 10° WSW 07:16:07 78° S 07:19:13 10° E visible
